Meath Environmental Platform

Observations

Time Sensor AQI SAQ Temp °C Hum % Pres Pa CO μg/m³ H₂S μg/m³ NO μg/m³ NO₂ μg/m³ O₃ μg/m³ SO₂ μg/m³ CO₂e PPM VOC PPM PM1 μg/m³ PM2.5 μg/m³ PM4 μg/m³ PM10 μg/m³ TPS µm
Wednesday 12 August 2026
02:43 Trim Patrick St 2 18.8 66 90,924 0 4.95 1.32 22.76 55.05 0.2 4.57 8.3 9.13
02:42 Trim Patrick St 2 18.8 68 90,547 0 4.98 1.32 13.46 48.69 0 5.43 8.91 9.8
02:41 Trim Patrick St 2 18.8 68 90,203 0 6.21 1.33 28.9 55.32 0.61 5.43 8.21 9.03
02:40 Trim Market St 2 19.5 63 57,570 0.02 0 1.26 13.18 62.27 0 1.43 3.37 5.53
02:40 Trim Patrick St 2 18.8 68 89,559 0 4.35 1.32 27.33 40.11 0 6.29 9.63 10.59
02:39 Trim Market St 2 19.5 63 57,575 0.03 0 1.26 20.07 57.68 0 0.71 3.37 4.87
02:39 Trim Patrick St 2 18.8 67 89,087 0 3.93 1.35 14.47 49.65 0.18 2.86 6.8 7.48
02:38 Trim Market St 2 19.6 63 57,582 0.01 0 1.25 15.38 59.31 0 1.43 2.87 4.2
02:38 Trim Patrick St 2 18.8 67 89,134 0 4.37 1.34 22 42.07 0 4.57 8.98 9.88
02:37 Trim Market St 2 19.5 63 57,583 0.01 0 1.24 13.45 65.63 0 1.43 3.37 4.86
02:37 Trim Patrick St 2 18.8 68 88,952 0 5.16 1.32 17.8 57.55 0.48 4.57 8.22 9.04
02:36 Trim Market St 2 19.5 63 57,583 0.02 0 1.23 15.75 62.36 0 1.43 3.87 5.53
02:36 Trim Patrick St 2 18.8 68 88,838 0 5.32 1.32 30.49 44.54 0.01 4.57 8.22 9.04
02:35 Trim Market St 2 19.6 63 57,586 0.02 0 1.23 18.85 60.47 0 1.43 2.88 4.19
02:35 Trim Patrick St 2 18.8 67 88,286 0 4.45 1.33 22 40.55 0 4.57 8.99 9.88
02:34 Trim Market St 2 19.6 63 57,591 0 0 1.23 16.67 63.15 0 1.43 3.37 4.86
02:34 Trim Patrick St 2 18.8 67 88,298 0 5.11 1.31 23.25 47.82 0.42 5.43 9.68 10.65
02:33 Trim Market St 2 19.6 63 57,592 0.02 0 1.23 20.63 58.73 0 1.43 2.88 4.19
02:33 Trim Patrick St 2 18.8 67 88,038 0 2.27 1.32 20.42 39.12 0.37 4.57 8.95 9.84
02:32 Trim Patrick St 2 18.8 67 88,061 0 3.48 1.33 12.83 43.9 0.34 5.43 8.95 9.84